WA7BMK Weather Reports


Display with metric or nautical units.
time (UTC)temp
F
wind
direction
speed
MPH
gust
MPH
rain 1hr
in
rain 24hr
in
rain mn
in
humidity
%
barometer
mb
20260508154535 51 244 1.0 8.0 0.00 0.00 0.00 75 1019.8
20260508153035 51 208 2.0 8.0 0.00 0.00 0.00 77 1019.9
20260508151544 50 360 2.0 9.0 0.00 0.00 0.00 79 1020.2
20260508150041 49 360 2.0 6.0 0.00 0.00 0.00 82 1020.1
20260508144543 48 360 1.0 5.0 0.00 0.00 0.00 84 1020.1
20260508143041 48 195 2.0 8.0 0.00 0.00 0.00 84 1019.9
20260508141532 47 180 1.0 6.0 0.00 0.00 0.00 85 1019.7
20260508140043 47 198 1.0 5.0 0.00 0.00 0.00 86 1019.4
20260508134536 47 196 1.0 3.0 0.00 0.00 0.00 86 1019.1
20260508133040 47 151 0.0 4.0 0.00 0.00 0.00 86 1018.8
20260508131533 47 165 1.0 4.0 0.00 0.00 0.00 87 1018.6
20260508130031 47 0 0.0 4.0 0.00 0.00 0.00 87 1018.5
20260508124535 47 0 0.0 3.0 0.00 0.00 0.00 87 1018.4
20260508123036 47 277 0.0 2.0 0.00 0.00 0.00 87 1018.2
20260508121535 47 0 0.0 2.0 0.00 0.00 0.00 87 1018.2
20260508120037 47 0 0.0 3.0 0.00 0.00 0.00 88 1017.9
20260508114537 47 0 0.0 1.0 0.00 0.00 0.00 88 1017.8
20260508113054 47 0 0.0 0.0 0.00 0.00 0.00 88 1017.6
20260508111535 47 0 0.0 0.0 0.00 0.00 0.00 88 1017.6
20260508110032 47 0 0.0 0.0 0.00 0.00 0.00 87 1017.5
20260508104545 47 0 0.0 0.0 0.00 0.00 0.00 88 1017.3
20260508103036 47 0 0.0 0.0 0.00 0.00 0.00 88 1017.3
20260508101537 47 0 0.0 0.0 0.00 0.00 0.00 88 1017.4
20260508100040 47 0 0.0 0.0 0.00 0.00 0.00 88 1017.3
20260508094535 47 0 0.0 0.0 0.00 0.00 0.00 87 1017.3
20260508093037 47 0 0.0 0.0 0.00 0.00 0.00 87 1017.1
20260508091535 48 0 0.0 0.0 0.00 0.00 0.00 87 1017.1
20260508090042 48 0 0.0 0.0 0.00 0.00 0.00 87 1017.3
20260508084536 48 0 0.0 0.0 0.00 0.00 0.00 86 1017.2
20260508083039 48 0 0.0 0.0 0.00 0.00 0.00 86 1017.1
20260508081535 48 0 0.0 0.0 0.00 0.00 0.00 86 1017.0
20260508080039 48 0 0.0 0.0 0.00 0.00 0.00 85 1016.9
20260508074536 49 0 0.0 0.0 0.00 0.00 0.00 84 1016.9
20260508073036 50 0 0.0 0.0 0.00 0.00 0.00 84 1016.8
20260508071537 50 0 0.0 0.0 0.00 0.00 0.00 83 1016.8
20260508070037 50 0 0.0 0.0 0.00 0.00 0.00 83 1017.1
20260508064556 49 0 0.0 0.0 0.00 0.00 0.00 83 1017.2
20260508063038 49 0 0.0 0.0 0.00 0.00 0.00 83 1017.1
20260508061535 50 0 0.0 0.0 0.00 0.00 0.00 82 1017.0
20260508060038 50 0 0.0 0.0 0.00 0.00 0.00 81 1017.0
20260508054548 50 0 0.0 0.0 0.00 0.00 0.00 81 1017.1
20260508053032 51 0 0.0 0.0 0.00 0.00 0.00 80 1017.1
20260508051531 52 0 0.0 0.0 0.00 0.00 0.00 79 1017.2
20260508050038 52 0 0.0 0.0 0.00 0.00 0.00 78 1017.1
20260508044534 53 0 0.0 0.0 0.00 0.00 0.00 77 1017.1
20260508043041 54 0 0.0 0.0 0.00 0.00 0.00 75 1017.2
20260508041537 55 0 0.0 0.0 0.00 0.00 0.00 73 1017.2
20260508040042 56 0 0.0 0.0 0.00 0.00 0.00 71 1017.3
20260508034538 57 0 0.0 0.0 0.00 0.00 0.00 69 1017.2
20260508033035 58 0 0.0 0.0 0.00 0.00 0.00 67 1017.1
20260508031544 60 0 0.0 0.0 0.00 0.00 0.00 64 1017.0
20260508030033 61 0 0.0 0.0 0.00 0.00 0.00 62 1017.0
20260508024535 62 0 0.0 0.0 0.00 0.00 0.00 61 1017.1
20260508023031 63 0 0.0 1.0 0.00 0.00 0.00 58 1017.3
20260508021537 64 103 0.0 3.0 0.00 0.00 0.00 56 1017.2
20260508020035 65 116 0.0 5.0 0.00 0.00 0.00 57 1017.4
20260508014535 65 0 0.0 3.0 0.00 0.00 0.00 56 1017.4
20260508013034 65 80 1.0 5.0 0.00 0.00 0.00 54 1017.5
20260508011544 64 0 0.0 3.0 0.00 0.00 0.00 57 1017.6
20260508010040 65 0 0.0 3.0 0.00 0.00 0.00 54 1017.8
20260508004539 67 119 0.0 4.0 0.00 0.00 0.00 52 1017.8
20260508003035 68 0 0.0 4.0 0.00 0.00 0.00 52 1017.8
20260508001540 66 17 0.0 4.0 0.00 0.00 0.00 53 1018.0
20260508000052 65 0 1.0 6.0 0.00 0.00 0.00 55 1018.1
20260507234543 64 265 1.0 4.0 0.00 0.00 0.00 57 1018.1
20260507233036 65 36 3.0 8.0 0.00 0.00 0.00 54 1018.1
20260507231542 66 263 1.0 4.0 0.00 0.00 0.00 55 1018.1
20260507230035 64 316 1.0 9.0 0.00 0.00 0.00 58 1018.3
20260507224538 65 325 1.0 6.0 0.00 0.00 0.00 58 1018.4
20260507223036 65 217 1.0 6.0 0.00 0.00 0.00 56 1018.5
20260507221536 64 247 0.0 6.0 0.00 0.00 0.00 58 1018.7
20260507220035 63 240 1.0 4.0 0.00 0.00 0.00 59 1018.9
20260507214536 63 0 1.0 6.0 0.00 0.00 0.00 61 1019.0
20260507213042 62 323 4.0 9.0 0.00 0.00 0.00 62 1019.2
20260507211547 62 165 0.0 8.0 0.00 0.00 0.00 61 1019.4
20260507210041 61 35 1.0 5.0 0.00 0.00 0.00 62 1019.5
20260507204534 60 0 0.0 4.0 0.00 0.00 0.00 66 1019.6
20260507203036 62 252 1.0 4.0 0.00 0.00 0.00 61 1019.8
20260507201535 59 200 1.0 4.0 0.00 0.00 0.00 64 1019.8
20260507200037 59 0 0.0 5.0 0.00 0.00 0.00 65 1020.0
20260507194538 59 0 0.0 5.0 0.00 0.00 0.00 65 1020.1
20260507193035 59 0 0.0 5.0 0.00 0.00 0.00 68 1020.2
20260507191535 59 0 1.0 5.0 0.00 0.00 0.00 63 1020.2
20260507190034 60 246 1.0 5.0 0.00 0.00 0.00 65 1020.3
20260507184536 58 159 2.0 4.0 0.00 0.00 0.00 66 1020.5
20260507183036 57 143 2.0 6.0 0.00 0.00 0.00 67 1020.5
20260507181535 57 0 0.0 4.0 0.00 0.00 0.00 69 1020.7
20260507180035 56 182 1.0 4.0 0.00 0.00 0.00 69 1020.7
20260507174551 55 225 1.0 6.0 0.00 0.00 0.00 71 1020.8
20260507173036 55 237 1.0 4.0 0.00 0.00 0.00 69 1020.8
20260507171547 56 198 2.0 5.0 0.00 0.00 0.00 70 1020.8
20260507170036 55 254 0.0 3.0 0.00 0.00 0.00 72 1020.8
20260507164537 54 219 1.0 5.0 0.00 0.00 0.00 71 1020.8
20260507163036 54 0 0.0 3.0 0.00 0.00 0.00 74 1021.0
20260507161539 54 193 1.0 6.0 0.00 0.00 0.00 74 1021.0